Terug naar catalogus

SL-8 DEB

ActiefPO
NORAD 7560·DEBRIS·🇷🇺 Russia

Gelanceerd Aug 16, 1972 vanaf Plesetsk Cosmodrome

Loading…

Volgende Passages (komende 24 uur)

TLE

VersSource: Space-Track

Epoch: Sep 13, 2026, 23:44 UTC

1 07560U 72062D   26256.98893583  .00000206  00000-0  10971-3 0  9998
2 07560  82.9716  93.0266 0065560  39.1208 321.4679 14.07819907652083

Volg SL-8 DEB in realtime met AllMySat

Download on the App Store